This is the latest recevied weather packets stored in our database for station/object K4HOG. If no packets are shown the sender has not sent any weather packets the latest 10 day(s).
| Time | Temp. | Humidity | Pressure | Rain* | Wind** | Luminosity | Snow |
|---|---|---|---|---|---|---|---|
| 1778036963 | 21.11° C | 70% | 1016.2 hPa | 0 mm | - | 0 W/m² | - |
| 1778036661 | 21.67° C | 69% | 1016 hPa | 0 mm | - | 0 W/m² | - |
| 1778036357 | 21.67° C | 70% | 1015.9 hPa | 0 mm | - | 0 W/m² | - |
| 1778036054 | 21.11° C | 70% | 1015.9 hPa | 0 mm | - | 0 W/m² | - |
| 1778035751 | 21.11° C | 70% | 1015.9 hPa | 0 mm | - | 0 W/m² | - |
| 1778035448 | 21.11° C | 71% | 1016.1 hPa | 0 mm | - | 0 W/m² | - |
| 1778035143 | 21.11° C | 72% | 1016 hPa | 0 mm | - | 0 W/m² | - |
| 1778034841 | 21.11° C | 72% | 1016 hPa | 0 mm | - | 0 W/m² | - |
| 1778034537 | 21.11° C | 71% | 1015.9 hPa | 0 mm | - | 0 W/m² | - |
| 1778034235 | 21.67° C | 70% | 1016 hPa | 0 mm | - | 0 W/m² | - |
| 1778033933 | 21.67° C | 69% | 1015.9 hPa | 0 mm | - | 0 W/m² | - |
| 1778033629 | 22.22° C | 68% | 1015.8 hPa | 0 mm | - | 0 W/m² | - |
| 1778033326 | 22.22° C | 67% | 1015.9 hPa | 0 mm | - | 0 W/m² | - |
| 1778033024 | 22.22° C | 66% | 1016 hPa | 0 mm | - | 0 W/m² | - |
| 1778032722 | 22.22° C | 68% | 1015.6 hPa | 0 mm | - | 0 W/m² | - |
| 1778032419 | 22.22° C | 66% | 1015.7 hPa | 0 mm | - | 0 W/m² | - |
| 1778032115 | 22.78° C | 66% | 1015.6 hPa | 0 mm | - | 0 W/m² | - |
| 1778031812 | 22.78° C | 65% | 1015.7 hPa | 0 mm | - | 0 W/m² | - |
| 1778031509 | 22.78° C | 64% | 1016 hPa | 0 mm | - | 0 W/m² | - |
| 1778031206 | 23.33° C | 65% | 1015.8 hPa | 0 mm | - | 0 W/m² | - |
| 1778030903 | 23.33° C | 63% | 1015.5 hPa | 0 mm | - | 0 W/m² | - |
| 1778030600 | 23.33° C | 64% | 1015.6 hPa | 0 mm | - | 0 W/m² | - |
| 1778030297 | 22.78° C | 64% | 1015.6 hPa | 0 mm | - | 0 W/m² | - |
| 1778029994 | 22.78° C | 67% | 1015.7 hPa | 0 mm | - | 0 W/m² | - |
| 1778029691 | 22.78° C | 67% | 1015.6 hPa | 0 mm | - | 0 W/m² | - |
* Rain latest hour (hover to see other rain measurements)
** Current wind speed in m/s (hover to see current wind gust speed)